Location: Hylvaty SDH
(49.9612°N, 16.4057°E)
Time: 01:08:00
(UTC+01:00)

Transit 2A Rocket - All Passes

Search period start: 26 January 2020 00:00
Search period end: 05 February 2020 00:00
Orbit: 593 x 910 km, 66.7° (Epoch: 25 January)

Date Brightness Start Highest point End Pass type
(mag) Time Alt. Az. Time Alt. Az. Time Alt. Az.
26 Jan - 04:29:11 10° S 04:32:55 29° ESE 04:36:42 10° NE visible
26 Jan - 06:11:15 10° WSW 06:15:19 41° NW 06:19:31 10° NNE visible
26 Jan - 07:57:00 10° NW 07:59:06 13° NNW 08:01:14 10° N daylight
26 Jan - 11:24:39 10° NNW 11:28:10 21° NNE 11:31:53 10° E daylight
26 Jan - 13:06:37 10° NW 13:11:23 80° NE 13:16:38 10° SE daylight
26 Jan - 14:50:09 10° WNW 14:53:30 18° WSW 14:57:01 10° SSW daylight
27 Jan - 03:47:49 10° SSE 03:50:39 17° ESE 03:53:30 10° ENE visible
27 Jan - 05:28:23 10° SW 05:32:40 66° NW 05:37:03 10° NNE visible
27 Jan - 07:13:16 10° WNW 07:16:05 17° NNW 07:18:59 10° NNE daylight
27 Jan - 10:42:21 10° NNW 10:45:12 16° NNE 10:48:12 10° ENE daylight
27 Jan - 12:24:08 10° NNW 12:28:47 52° NE 12:33:50 10° SE daylight
27 Jan - 14:06:58 10° NW 14:11:11 30° WSW 14:15:43 10° S daylight
28 Jan - 04:45:50 10° SSW 04:50:07 74° SE 04:54:30 10° NE visible
28 Jan - 06:29:45 10° W 06:33:10 22° NNW 06:36:41 10° NNE visible
28 Jan - 08:16:56 10° NNW 08:17:28 10° N 08:18:01 10° N daylight
28 Jan - 10:00:05 10° N 10:02:11 13° NNE 10:04:19 10° NE daylight
28 Jan - 11:41:44 10° NNW 11:46:05 35° NE 11:50:47 10° ESE daylight
28 Jan - 13:24:08 10° NW 13:28:47 48° WSW 13:33:51 10° SSE daylight
29 Jan - 04:03:38 10° S 04:07:41 42° ESE 04:11:49 10° NE visible
29 Jan - 05:46:28 10° WSW 05:50:19 31° NW 05:54:19 10° NNE visible
29 Jan - 07:32:45 10° NW 07:34:20 12° NNW 07:35:58 10° N daylight
29 Jan - 09:17:53 10° N 09:19:04 11° NNE 09:20:17 10° NNE daylight
29 Jan - 10:59:22 10° NNW 11:03:17 25° NE 11:07:28 10° E daylight
29 Jan - 12:41:29 10° NW 12:46:18 77° SW 12:51:35 10° SSE daylight
29 Jan - 14:25:52 10° W 14:28:12 13° WSW 14:30:37 10° SW daylight
30 Jan - 03:21:52 10° SSE 03:25:21 25° ESE 03:28:53 10° ENE visible
30 Jan - 05:03:26 10° WSW 05:07:36 48° NW 05:11:54 10° NNE visible
30 Jan - 06:48:53 10° NW 06:51:17 14° NNW 06:53:44 10° N visible
30 Jan - 10:17:03 10° NNW 10:20:23 19° NNE 10:23:55 10° ENE daylight
30 Jan - 11:58:57 10° NNW 12:03:45 69° NE 12:08:59 10° SE daylight
30 Jan - 13:42:12 10° WNW 13:45:57 22° WSW 13:49:57 10° SSW daylight
31 Jan - 02:40:48 10° SE 02:43:07 14° ESE 02:45:26 10° ENE visible
31 Jan - 04:20:42 10° SW 04:24:59 79° NW 04:29:25 10° NE visible
31 Jan - 06:05:13 10° WNW 06:08:17 18° NNW 06:11:27 10° NNE visible
31 Jan - 09:34:45 10° NNW 09:37:25 15° NNE 09:40:11 10° ENE daylight
31 Jan - 11:16:30 10° NNW 11:21:06 45° NE 11:26:06 10° ESE daylight
31 Jan - 12:59:10 10° NW 13:03:36 35° WSW 13:08:25 10° S daylight
01 Feb - 03:38:15 10° SSW 03:42:29 61° ESE 03:46:50 10° NE visible
01 Feb - 05:21:48 10° W 05:25:23 25° NW 05:29:07 10° NNE visible
01 Feb - 07:08:33 10° NNW 07:09:36 11° N 07:10:41 10° N daylight
01 Feb - 08:52:29 10° N 08:54:20 12° NNE 08:56:16 10° NE daylight
01 Feb - 10:34:07 10° NNW 10:38:22 31° NE 10:42:57 10° ESE daylight
01 Feb - 12:16:24 10° NW 12:21:11 57° WSW 12:26:24 10° SSE daylight
02 Feb - 02:56:11 10° S 03:00:04 35° ESE 03:04:04 10° NE visible
02 Feb - 04:38:36 10° WSW 04:42:36 36° NW 04:46:44 10° NNE visible
02 Feb - 06:24:34 10° NW 06:26:30 12° NNW 06:28:29 10° N visible
02 Feb - 08:10:15 10° N 08:11:13 11° N 08:12:12 10° NNE daylight
02 Feb - 09:51:45 10° NNW 09:55:32 23° NE 09:59:33 10° E daylight
02 Feb - 11:33:48 10° NW 11:38:40 89° SW 11:44:00 10° SE daylight
02 Feb - 13:17:39 10° WNW 13:20:41 16° WSW 13:23:51 10° SW daylight
03 Feb - 02:14:36 10° SSE 02:17:47 20° ESE 02:21:01 10° ENE visible
03 Feb - 03:55:40 10° SW 03:59:54 57° NW 04:04:18 10° NNE visible
03 Feb - 05:40:47 10° WNW 05:43:27 16° NNW 05:46:12 10° NNE visible
03 Feb - 09:09:26 10° NNW 09:12:36 17° NNE 09:15:56 10° ENE daylight
03 Feb - 10:51:18 10° NNW 10:56:05 60° NE 11:01:18 10° SE daylight
03 Feb - 12:34:18 10° WNW 12:38:24 26° WSW 12:42:47 10° SSW daylight
04 Feb - 01:34:05 10° SE 01:35:35 12° ESE 01:37:06 10° E night (unlit)
04 Feb - 03:13:01 10° SSW 03:17:19 87° SE 03:21:46 10° NE visible
04 Feb - 04:57:13 10° W 05:00:30 20° NNW 05:03:53 10° NNE visible
04 Feb - 06:44:23 10° NNW 06:44:54 10° N 06:45:25 10° N visible
04 Feb - 08:27:08 10° N 08:29:36 14° NNE 08:32:08 10° NE daylight
04 Feb - 10:08:52 10° NNW 10:13:24 40° NE 10:18:20 10° ESE daylight
04 Feb - 11:51:24 10° NW 11:56:02 42° WSW 12:01:03 10° S daylight
